Dewpoint
28 24 20 17 15 13 19 16 16 21 29 22 25 30 32 41 42 42 40 42 39 39 42 48 50 48 50 51 51 51 51 52 54 56 52 47 46 49 54 58 58 56 54 54
26 22 21 18 14 16 17 15 14 19 19 20 19 22 33 37 40 41 40 41 41 39 40 45 49 49 49 50 51 51 51 52 53 51 50 46 46 48 53 58 57 56 56 53
22 21 20 18 16 17 16 15 18 16 20 18 17 18 21 28 36 41 40 39 39 40 40 43 45 48 50 50 50 51 51 52 53 51 50 46 46 50 51 55 57 57 56 54
21 22 20 17 17 16 14 16 20 17 16 15 18 17 19 21 30 37 39 39 38 38 40 41 44 45 48 49 51 51 51 51 52 52 49 46 48 48 51 54 55 56 57 55
21 21 20 18 17 18 17 23 20 19 18 18 15 11 19 16 23 28 35 39 39 39 39 40 43 45 46 48 49 51 51 51 51 53 52 49 50 51 51 53 56 57 56 55
21 20 19 17 18 20 20 21 20 20 19 17 17 14 19 15 16 20 26 33 38 38 39 38 41 45 47 48 50 51 51 50 51 52 54 54 52 52 50 54 55 54 54 53
21 19 19 20 20 21 21 19 16 18 17 17 18 15 14 23 16 18 20 25 32 38 38 37 38 41 44 48 51 51 51 51 51 52 54 55 54 54 53 54 55 52 51 49
17 16 18 21 19 18 19 17 16 22 24 20 21 14 12 16 19 20 19 20 22 32 37 38 38 39 42 45 50 53 52 52 51 54 54 55 57 57 57 57 55 53 50 48
15 15 17 19 21 19 19 19 17 16 21 20 20 16 16 18 15 17 21 25 26 27 33 37 38 40 42 44 48 53 53 52 53 53 55 56 57 58 57 58 56 53 49 50
17 14 16 19 22 22 21 23 19 20 22 19 14 13 13 14 12 16 14 21 23 30 34 33 36 40 42 44 47 53 54 53 53 55 57 57 58 57 58 57 55 52 50 48
19 18 16 22 21 18 21 22 22 20 18 19 15 15 17 16 16 17 18 19 20 27 34 39 38 38 41 45 48 50 54 55 54 55 56 58 58 58 58 57 54 52 50 47
20 18 17 20 21 18 20 20 21 20 21 23 21 19 17 17 18 20 18 20 24 29 32 39 42 42 42 44 47 49 53 54 54 55 56 58 59 57 56 55 54 53 52 50
21 18 18 17 17 22 20 24 25 24 22 26 26 18 19 19 19 20 20 21 25 26 30 38 43 45 45 47 48 50 52 52 53 54 54 56 58 57 56 55 55 54 52 49
25 19 18 18 15 17 18 18 20 21 24 23 22 18 19 18 19 19 20 22 24 26 29 34 43 46 47 48 50 51 53 53 53 53 54 54 55 55 54 54 52 50 45 42
25 22 21 18 16 14 13 16 18 19 20 21 21 19 16 17 19 18 26 27 26 29 35 38 42 46 49 51 52 52 53 53 52 52 52 53 53 52 51 51 50 49 46 44
26 22 20 16 16 13 12 13 14 16 17 18 18 18 16 16 19 20 22 27 29 34 38 42 46 48 49 50 50 51 50 49 49 48 47 48 48 47 47 46 44 43 42 40
26 27 23 19 17 15 16 16 16 14 14 15 16 17 16 15 21 23 23 29 32 36 39 41 41 42 43 44 44 45 45 45 45 44 44 45 44 43 42 40 39 37 36 36
30 28 27 23 26 21 22 21 20 19 17 17 15 15 17 21 22 24 27 31 35 36 38 39 39 39 40 41 41 41 41 41 41 41 42 42 41 40 39 37 36 35 35 35
35 33 27 26 24 20 18 20 21 19 18 18 18 19 22 23 28 30 32 34 35 36 36 37 38 38 38 38 38 38 38 38 38 38 38 39 39 38 37 37 38 38 37 37
32 37 32 29 23 20 22 22 23 21 20 20 21 21 23 26 29 25 33 35 35 36 36 37 37 37 37 37 37 37 37 37 37 38 38 38 38 38 38 38 38 39 39 39
34 35 34 31 26 23 22 21 23 22 21 22 23 24 23 23 29 33 35 35 35 35 36 36 36 36 37 37 37 37 37 36 37 37 37 38 38 38 38 38 38 38 37 37
33 31 33 31 28 27 25 26 22 24 25 29 29 25 25 28 36 35 35 35 34 35 35 36 36 36 37 37 36 36 36 37 37 37 36 36 36 34 34 31 29 26 27 28
27 34 30 28 28 32 30 27 28 25 28 32 29 27 29 37 35 35 34 34 34 34 35 35 36 36 36 36 36 35 35 35 34 31 28 26 25 25 25 25 25 23 24 24
33 29 32 31 32 30 32 31 29 31 31 32 32 30 33 37 35 35 34 34 34 34 34 35 35 35 34 34 33 33 32 30 29 27 25 25 23 21 20 17 14 15 20 19
28 33 32 29 28 30 33 34 33 32 33 32 32 32 34 36 35 34 34 34 33 33 34 34 32 32 31 31 30 28 27 26 24 23 21 21 19 15 13 15 15 16 19 18
29 28 31 30 29 33 32 33 33 34 33 34 32 33 36 35 34 34 34 33 33 33 33 32 32 31 29 28 26 25 24 23 21 19 19 20 18 14 10 11 19 18 17 18
Wind_Speed
17 17 19 20 18 18 11 9 13 9 15 8 9 15 5 15 12 12 13 16 15 15 18 17 19 24 22 25 26 24 23 24 22 20 21 18 19 18 13 13 18 15 14 14
15 18 18 19 9 9 12 13 14 5 4 6 10 13 15 15 14 15 15 18 17 17 19 22 22 22 26 25 25 26 25 23 21 21 19 16 16 18 16 14 15 14 15 14
20 9 13 8 14 15 15 18 4 8 4 11 13 14 11 11 13 14 15 17 18 20 22 23 24 25 24 26 28 26 26 25 23 22 17 17 16 16 17 15 14 14 15 16
19 14 10 14 18 18 18 13 5 5 9 8 11 2 14 17 16 18 18 16 18 21 23 24 26 27 27 26 25 25 26 26 25 23 19 21 20 21 16 17 14 14 18 18
21 19 17 17 18 14 10 11 8 14 14 9 9 10 8 9 14 20 21 21 21 21 23 26 29 29 29 28 27 27 26 26 25 24 23 20 21 18 18 18 17 21 18 17
22 18 19 19 17 8 8 7 10 15 16 13 12 18 8 13 14 13 23 24 24 24 25 25 26 28 28 28 27 27 28 27 26 25 26 24 22 23 19 19 17 17 13 13
27 18 17 13 12 14 13 14 17 12 17 15 8 7 12 10 4 4 3 11 25 26 27 26 27 27 27 29 28 27 29 29 28 27 26 27 25 23 22 14 15 15 13 8
26 28 26 17 23 19 22 22 21 7 13 14 5 8 16 5 6 1 7 9 10 20 28 28 28 28 28 28 30 29 29 29 28 28 29 25 23 19 16 12 13 14 14 15
29 28 28 22 21 21 14 22 26 26 9 9 14 9 6 11 6 6 5 3 7 12 14 24 27 29 29 28 27 28 29 28 28 28 20 20 18 17 18 16 16 16 19 20
20 22 17 16 11 13 14 6 18 15 15 14 19 17 6 9 9 5 7 5 0 3 4 9 17 22 25 26 26 25 28 27 26 21 20 21 20 19 16 14 16 15 14 15
28 15 20 16 21 23 15 17 12 11 20 16 15 14 3 4 4 4 6 4 3 2 3 5 6 11 15 17 21 22 23 24 23 21 19 16 15 15 16 15 15 16 14 16
34 18 22 21 21 25 21 21 23 19 16 17 15 18 6 6 9 2 7 7 3 1 1 4 7 7 10 13 16 18 18 20 18 16 18 16 13 11 13 14 15 14 15 17
30 27 20 24 20 13 16 20 19 16 19 8 17 14 8 5 7 9 9 9 8 5 5 6 7 9 10 12 12 14 14 15 16 18 16 14 13 11 11 12 12 8 10 8
27 24 29 27 24 20 23 22 22 21 17 18 22 19 15 12 12 12 11 13 9 7 6 8 8 10 11 10 10 10 9 8 7 8 8 9 9 11 9 8 8 7 7 8
22 31 24 31 25 24 27 29 27 25 24 25 23 23 20 16 10 10 8 4 6 8 8 8 9 10 11 11 10 11 11 10 9 8 7 8 7 6 7 8 9 11 12 10
22 23 27 29 28 26 23 21 24 27 29 26 26 27 20 17 9 7 8 6 8 9 8 9 9 10 10 11 12 13 12 12 11 11 10 9 8 7 6 7 7 6 6 8
19 20 21 26 25 25 29 22 23 24 27 21 25 26 20 21 14 13 13 10 10 11 13 13 13 13 13 14 14 14 13 12 13 13 12 11 10 10 9 9 9 8 8 9
10 16 17 17 8 22 14 19 27 27 25 24 24 23 20 15 12 7 5 12 13 15 16 16 15 15 15 16 16 15 14 14 14 13 12 12 12 12 11 10 10 9 9 10
15 12 11 18 18 16 21 16 15 19 22 21 21 20 19 11 4 6 7 12 16 17 17 17 16 16 16 16 16 16 16 15 15 14 14 13 13 14 14 13 12 10 9 7
15 14 15 11 21 27 16 20 15 17 22 15 17 15 10 7 13 17 18 19 19 17 17 18 17 16 16 15 15 16 16 15 15 15 15 15 14 14 14 13 10 9 8 7
8 7 19 22 14 13 13 16 15 17 18 7 5 6 10 14 20 10 23 21 21 20 19 18 17 16 16 16 16 17 17 16 16 15 15 14 13 12 11 9 7 6 5 5
10 13 11 15 18 21 8 11 17 20 17 7 9 10 11 9 12 24 25 25 24 22 20 18 18 17 16 16 17 17 17 16 15 15 14 12 11 9 8 8 6 5 4 2
16 12 12 12 10 11 18 21 21 20 13 9 12 11 11 19 21 24 26 26 24 23 20 18 18 18 16 15 16 17 16 15 14 14 12 11 10 8 6 5 4 3 3 3
11 13 10 12 11 16 11 19 16 13 15 13 10 10 15 23 24 26 26 25 24 23 21 20 20 19 18 15 14 16 15 14 14 13 12 9 8 6 5 5 4 4 5 4
12 10 14 23 26 22 14 14 20 15 10 11 9 12 18 22 26 28 28 26 24 23 21 21 20 19 18 16 15 15 14 14 14 12 10 9 7 5 6 7 7 6 8 7
16 20 17 17 18 14 18 14 17 17 18 14 15 15 19 23 26 27 26 25 24 24 22 21 20 20 18 17 16 14 12 12 12 11 8 6 6 5 4 3 7 8 10 8
Wind_Direction
204 227 233 239 225 267 294 299 270 141 236 269 260 143 254 160 181 176 198 172 181 175 161 174 169 168 172 171 179 186 186 192 190 196 208 202 204 211 203 209 228 177 209 197
213 229 246 243 259 237 249 260 257 177 138 260 263 249 180 158 190 186 196 185 199 183 172 174 185 185 185 186 189 192 192 198 199 203 205 209 207 210 200 207 216 205 209 200
223 251 199 227 215 219 232 248 208 273 251 249 270 242 187 178 192 199 200 197 196 195 187 184 188 192 193 198 195 199 201 200 206 218 197 205 209 223 207 201 213 214 211 212
225 228 200 201 221 213 224 231 202 253 264 293 265 271 274 183 196 201 204 208 197 199 195 191 193 196 197 200 198 205 204 207 204 209 208 207 208 209 215 216 217 214 219 215
219 222 202 220 219 200 255 232 212 271 277 289 222 255 193 259 189 204 210 205 209 203 202 198 195 199 201 199 203 203 210 208 208 202 218 206 215 215 213 210 210 218 211 217
232 213 207 218 222 214 223 213 230 247 252 250 220 246 180 205 217 203 197 198 207 207 209 206 200 197 202 202 203 204 211 213 212 208 207 224 209 225 224 197 205 222 203 204
223 205 217 231 207 199 213 223 229 235 230 235 253 238 256 265 191 174 271 207 200 207 214 209 206 203 203 198 202 205 210 215 212 214 214 214 220 223 229 225 200 208 205 183
211 214 207 189 225 210 211 228 228 216 261 227 214 237 246 273 62 285 272 265 271 211 210 217 216 211 209 207 200 205 209 213 211 205 215 215 212 225 229 203 203 203 192 181
211 224 196 203 211 233 238 218 238 259 292 276 233 214 235 213 234 221 247 271 232 218 230 220 222 219 217 210 207 202 214 213 215 216 209 218 214 215 222 207 212 203 190 192
245 225 198 180 218 218 246 254 225 229 224 243 241 249 244 170 221 174 255 227 329 165 205 237 236 227 221 221 210 204 212 220 217 218 196 211 215 210 214 203 203 203 209 206
237 229 198 166 209 211 197 231 228 240 237 237 252 233 232 138 252 257 283 200 203 87 124 170 210 223 228 218 217 210 212 222 220 216 213 203 214 212 203 194 204 213 204 206
224 217 232 212 224 225 224 217 209 224 221 219 252 258 167 244 272 229 266 188 193 217 183 153 166 180 195 203 206 206 208 216 215 210 215 193 184 159 167 195 207 209 214 218
211 226 219 227 199 212 235 215 231 250 249 198 246 241 218 209 225 243 248 232 201 224 218 173 162 166 172 180 183 186 192 195 196 201 201 170 144 167 181 201 209 201 209 204
214 222 222 225 225 207 217 236 231 224 226 239 247 262 239 235 222 246 243 206 240 201 206 213 169 161 154 149 155 150 156 160 160 149 176 180 167 168 187 187 178 182 155 149
225 223 226 234 236 233 224 218 225 234 232 235 243 245 258 259 257 288 12 136 206 206 203 191 180 159 152 138 139 128 124 127 134 137 149 131 153 177 170 167 175 185 176 176
214 223 231 229 229 236 240 237 232 235 232 241 247 255 265 280 284 251 247 232 211 185 173 166 151 142 135 138 123 122 120 119 120 119 114 116 119 119 116 104 101 116 131 136
210 216 226 234 225 236 242 237 253 245 246 242 246 255 263 257 243 244 254 214 196 170 154 146 135 127 122 116 118 113 114 112 108 108 105 103 103 103 104 108 111 118 129 143
229 221 221 215 217 223 236 236 235 241 249 246 248 248 261 273 270 311 223 196 175 158 145 138 132 125 118 112 109 110 107 105 103 102 104 105 107 108 107 104 105 116 132 144
233 228 223 217 224 244 238 227 227 243 245 243 252 252 243 256 152 198 202 169 164 156 149 139 130 125 120 117 116 115 111 110 108 106 105 107 110 111 111 109 109 118 123 133
242 238 224 200 228 232 233 244 217 247 252 248 245 243 246 192 222 243 175 157 149 150 146 141 133 128 123 121 120 116 113 110 107 109 109 110 110 110 101 93 95 79 88 88
186 205 215 219 231 242 222 237 193 213 249 245 227 256 254 237 231 155 154 157 159 156 147 140 137 132 129 128 125 119 118 116 117 112 106 97 96 102 107 110 114 120 131 153
206 190 193 228 229 235 238 161 212 235 249 221 240 251 260 217 148 153 159 160 157 155 149 146 140 138 135 133 132 128 124 122 119 119 115 113 115 121 129 124 128 119 93 88
213 247 226 212 238 225 195 216 222 249 273 212 236 234 212 162 167 164 163 163 161 158 154 151 144 139 136 138 141 134 131 129 126 122 118 114 108 101 93 93 89 100 58 33
229 232 244 271 259 254 229 233 257 241 242 251 226 216 196 180 174 171 167 167 164 162 159 153 149 146 142 141 134 134 135 133 130 125 119 111 111 108 95 98 64 66 43 19
222 189 233 250 255 269 277 258 247 230 244 233 226 204 187 181 181 176 171 169 168 164 157 157 155 148 145 140 136 135 136 137 133 128 125 117 116 108 108 83 49 64 64 40
229 230 231 245 249 278 265 291 249 230 222 228 220 194 184 184 183 177 173 171 167 162 161 159 155 150 144 141 137 133 135 137 135 129 120 112 118 101 96 100 133 84 104 108